Tacoma, WA

10:22 PM PDT on June 22, 2018 (GMT -0700)
McChord Air Force Base

Weather History for KTCM - August, 2016

Change the Weather History Date:

Friday, August 19, 2016

  Actual Average Record
Temperature  
Mean Temperature 75 °F -  
Max Temperature 94 °F 74 °F 94 °F (2016)
Min Temperature 57 °F 51 °F 41 °F (1973)
Cooling Degree Days 10    
Growing Degree Days 25 (Base 50)    
Moisture  
Dew Point 52 °F    
Average Humidity 49    
Maximum Humidity 96    
Minimum Humidity 21    
Precipitation  
Precipitation 0.00 in - - ()
Sea Level Pressure  
Sea Level Pressure 29.97 in    
Wind  
Wind Speed 5 mph (NE)    
Max Wind Speed 13 mph    
Max Gust Speed 20 mph    
Visibility 10 miles    
Events      
Averages and records for this station are not official NWS values.
T = Trace of Precipitation, MM = Missing Value Source: NWS Daily Summary

Daily Weather History Graph

Daily Weather History Graph

Search for Another Location

Airport or City:

Astronomy

Aug. 19, 2016 Rise Set
Actual Time 6:12 AM PDT 8:12 PM PDT
Civil Twilight 5:39 AM PDT 8:45 PM PDT
Nautical Twilight 4:59 AM PDT 9:26 PM PDT
Astronomical Twilight 4:14 AM PDT 10:10 PM PDT
Moon 9:01 PM PDT (8/19) 7:43 AM PDT (8/19)
Length of Visible Light 15h 05m
Length of Day
14h 00m
Full, 97% of the Moon is Illuminated
Aug 19
Full
Aug 24
Last Quarter
Sep 1
New
Sep 9
First Quarter
Sep 16
Full

Hourly Weather History & Observations

Time (PDT) Temp. Dew Point Humidity Pressure Visibility Wind Dir Wind Speed Gust Speed Precip Events Conditions
12:58 AM 62.8 °F 55.0 °F 76% 29.97 in 10.0 mi Variable 2.3 mph - N/A   Clear
1:58 AM 72.3 °F 51.3 °F 47% 29.97 in 10.0 mi ESE 3.5 mph - N/A   Clear
2:58 AM 64.2 °F 55.0 °F 72% 29.97 in 10.0 mi East 3.5 mph - N/A   Clear
3:58 AM 60.3 °F 55.2 °F 83% 29.98 in 10.0 mi NE 2.3 mph - N/A   Clear
4:58 AM 58.8 °F 55.2 °F 88% 29.97 in 10.0 mi Variable 1.2 mph - N/A   Clear
5:58 AM 57.9 °F 56.7 °F 96% 29.99 in 10.0 mi SE 3.5 mph - N/A   Clear
6:58 AM 59.2 °F 57.4 °F 94% 30.00 in 10.0 mi Variable 1.2 mph - N/A   Clear
7:58 AM 67.3 °F 58.5 °F 73% 30.01 in 10.0 mi Variable 2.3 mph - N/A   Clear
8:58 AM 76.6 °F 51.8 °F 42% 30.01 in 10.0 mi NNE 5.8 mph - N/A   Clear
9:58 AM 80.1 °F 52.5 °F 38% 30.02 in 10.0 mi North 11.5 mph - N/A   Clear
10:58 AM 82.8 °F 52.3 °F 35% 30.01 in 10.0 mi North 9.2 mph - N/A   Clear
11:58 AM 86.2 °F 51.8 °F 31% 30.01 in 10.0 mi NNE 9.2 mph - N/A   Clear
12:58 PM 89.2 °F 51.8 °F 28% 30.00 in 10.0 mi North 12.7 mph - N/A   Clear
1:58 PM 91.0 °F 52.3 °F 27% 29.99 in 10.0 mi NE 9.2 mph - N/A   Clear
2:58 PM 92.7 °F 51.4 °F 25% 29.97 in 10.0 mi North 11.5 mph - N/A   Clear
3:58 PM 93.7 °F 51.3 °F 24% 29.95 in 10.0 mi NE 11.5 mph - N/A   Clear
4:58 PM 93.7 °F 49.8 °F 22% 29.94 in 10.0 mi NNE 12.7 mph 19.6 mph N/A   Clear
5:58 PM 92.1 °F 46.9 °F 21% 29.93 in 10.0 mi NNE 12.7 mph - N/A   Clear
6:58 PM 87.8 °F 47.5 °F 25% 29.92 in 10.0 mi NNE 11.5 mph 17.3 mph N/A   Clear
7:58 PM 84.4 °F 47.5 °F 28% 29.92 in 10.0 mi NNE 4.6 mph - N/A   Clear
8:58 PM 79.9 °F 46.0 °F 30% 29.92 in 10.0 mi NNE 2.3 mph - N/A   Clear
9:58 PM 68.9 °F 50.2 °F 51% 29.93 in 10.0 mi East 1.2 mph - N/A   Clear
10:58 PM 66.2 °F 51.8 °F 60% 29.94 in 10.0 mi SSE 2.3 mph - N/A   Clear
11:58 PM 62.2 °F 47.7 °F 59% 29.94 in 10.0 mi South 3.5 mph - N/A   Clear